SCP
0 0 0 0 0 0 0 0 0 0 0 0 0 0 0 0 0 0 0 0 0 0 0 0 0 0 0 0 0 0 0 0 0 0 0 0 0 0 0 0 0 0 0 0 0 0 0 0 0 0 0 0 0 -0
0 0 0 0 0 0 0 0 0 0 0 0 0 0 0 0 0 0 0 0 0 0 0 0 0 0 0 0 0 0 0 0 0 0 0 0 0 0 0 0 0 0 0 0 0 0 0 0 0 0 0 0 0 0
0 0 0 0 0 0 0 0 0 0 0 0 0 0 0 0 0 0 0 0 0 0 0 0 0 0 0 0 0 0 0 0 0 0 0 0 0 0 0 0 0 0 0 0 0 0 0 0 0 0 0 0 0 0
0 0 0 0 0 0 0 0 0 0 0 0 0 0 0 0 0 0 0 0 0 0 0 0 0 0 0 -0 0 0 0 0 0 0 0 0 0 0 0 0 0 0 0 0 0 0 0 0 0 0 0 0 0 0
0 0 0 0 0 0 0 0 0 0 0 0 0 0 0 0 0 0 0 0 0 0 0 0 -0 -0 0 0 0 0 0 0 0 0 0 0 0 0 0 0 0 0 0 0 0 0 0 0 0 0 0 0 0 0
0 0 0 0 0 0 0 0 0 0 0 0 0 0 0 0 0 0 0 0 0 0 0 0 0 0 0 0 0 0 0 0 0 0 0 0 0 0 0 0 0 0 0 0 -0 -0 -0 -0 0 0 0 0 0 0
0 0 0 0 0 0 0 0 0 0 0 0 0 0 0 0 0 0 0 0 0 0 0 -0 0 0 0 0 0 0 0 0 0 0 0 0 0 0 0 0 -0 0 0 -0 -0 -0 -0 -0 -0 0 0 -0 0 0
0 0 0 0 0 0 0 0 0 0 0 0 0 0 0 0 0 0 0 -0 -0 0 0 -0 -0 0 0 -0 -0 0 0 0 0 0 0 0 0 0 0 0 0 0 0 0 0 0 -0 -0 0 0 0 -0 -0 -0
0 0 0 0 0 0 0 0 0 0 -0 -0 0 0 0 0 0 0 0 0 0 -0 -0 -0 0 -0 0 0 0 0 0 0 0 0 0 0 0 0 0 0 0 0 0 -0 -0 0 0 0 0 0 -0 -0 0 0
0 0 0 0 0 0 0 0 0 0 -0 0 0 0 0 0 0 0 0 0 0 0 -0 0 0 0 0 0 0 0 0 0 0 0 0 0 0 0 0 0 0 0 0 0 0 -0 0 0 -0 -0 -0 -0 0 -0
0 0 0 0 0 0 0 0 0 0 0 0 0 0 0 0 0 0 -0 0 0 -0 0 0 0 0 0 0 0 0 0 0 0 0 0 0 0 0 0 0 0 0 0 0 0 0 0 -0 -0 -0 -0 -0 -0 -0
0 0 0 0 0 0 0 0 0 0 0 0 0 -0 -0 0 0 -0 0 0 -0 0 0 -0 0 0 0 0 0 0 0 0 0 0 0 0 0 0 0 0 0 0 0 0 0 0 0 -0 -0 -0 -0 -0 0 -0
0 0 0 0 0 0 0 0 0 0 -0 0 0 -0 -0 -0 0 0 0 0 -0 -0 -0 0 0 0 0 0 0 0 0 0 0 0 0 0 0 0 0 0 0 0 0 0 0 0 0 0 0 0 0 0 0 0
0 0 0 0 0 0 0 0 -0 0 0 0 0 -0 -0 0 0 0 0 0 0 0 -0 0 0 0 0 0 0 0 0 0 0 0 0 0 0 0 0 0 0 0 0 0 0 0 0 0 0 0 0 0 0 0
0 0 0 0 0 -0 -0 -0 -0 0 0 0 0 -0 0 0 0 0 0 -0 -0 0 -0 0 0 0 0 0 0 0 0 0 0 0 0 0 -0 0 0 0 0 0 0 0 0 0 0 0 0 0 0 0 0 0
0 0 0 0 -0 -0 -0 -0 0 0 0 0 0 0 0 0 0 0 0 0 -0 -0 -0 -0 0 0 0 0 0 0 0 0 0 0 0 0 0 0 0 0 0 0 0 0 0 0 0 0 0 0 -0 0 0 0
0 0 0 0 0 -0 0 0 0 0 0 0 0 0 0 0 0 0 0 0 -0 -0 -0 0 0 0 0 0 0 0 0 0 0 0 0 -0 -0 0 0 0 0 -0 -0 0 0 0 0 0 0 0 0 0 -0 -0
0 0 0 -0 0 0 0 0 0 0 -0 -0 0 0 0 0 0 0 0 0 -0 -0 0 0 0 0 0 0 0 0 -0 -0 -0 0 -0 -0 -0 0 0 0 0 0 -0 -0 -0 0 0 0 -0 -0 -0 0 0 0
0 -0 -0 -0 0 0 0 -0 -0 -0 0 0 0 0 0 0 0 0 -0 -0 -0 -0 0 0 0 0 0 0 0 0 -0 -0 0 0 -0 -0 -0 -0 0 0 0 0 0 -0 -0 -0 0 0 -0 -0 -0 0 0 0
-0 -0 -0 0 0 -0 -0 -0 0 0 0 0 0 0 0 0 0 0 0 0 -0 -0 0 0 0 0 0 0 0 0 -0 -0 -0 0 -0 0 -0 0 0 0 0 0 0 -0 -0 -0 0 -0 -0 0 0 -0 -0 0
-0 -0 -0 -0 -0 0 0 0 0 0 0 0 0 0 0 0 0 0 0 -0 0 0 0 0 0 0 -0 -0 -0 -0 -0 -0 -0 -0 -0 0 -0 0 0 0 0 0 0 0 -0 -0 0 0 -0 0 0 0 -0 0
-0 -0 -0 0 0 0 0 0 0 0 0 0 0 0 0 0 0 0 -0 0 0 0 0 0 0 0 0 0 0 -0 -0 -0 -0 -0 0 0 0 0 0 0 0 0 0 0 -0 0 0 0 0 0 0 -0 -0 0
-0 0 0 0 0 0 0 0 0 0 0 0 0 0 0 0 0 -0 0 0 0 0 0 0 0 0 0 0 -0 -0 -0 0 -0 -0 -0 0 0 0 0 0 0 0 0 0 0 0 -0 -0 0 -0 -0 -0 -0 -0
0 0 0 0 0 0 0 0 0 0 0 0 0 0 0 0 0 0 0 0 0 0 0 0 0 0 0 0 0 0 -0 0 -0 -0 -0 0 0 0 0 0 0 0 0 0 0 0 0 -0 -0 0 0 0 0 0
-0 0 0 0 0 0 0 0 0 0 0 0 0 0 0 0 0 0 0 0 0 0 0 0 0 0 0 0 0 0 0 0 0 0 0 0 0 0 0 0 0 0 0 0 0 0 0 0 -0 -0 -0 -0 0 0
0 0 0 0 0 0 0 0 0 0 0 0 0 -0 0 0 0 0 0 0 0 0 0 0 0 0 0 -0 0 0 0 0 0 0 0 -0 0 0 0 0 0 0 0 0 0 0 0 0 0 -0 -0 -0 -0 0
0 0 0 0 0 0 0 0 0 0 0 0 0 0 0 0 0 0 0 0 0 0 0 0 0 0 0 0 0 0 0 0 0 -0 -0 -0 0 0 0 0 0 0 0 0 0 0 0 0 0 0 0 -0 -0 -0
0 0 0 0 0 0 0 0 0 0 0 0 0 0 0 0 0 0 0 0 0 0 0 0 0 0 0 0 0 0 0 0 0 -0 -0 0 0 0 0 0 0 0 0 0 0 0 0 0 0 0 0 0 0 -0
0 0 0 0 0 0 0 0 0 0 0 -0 0 0 0 0 0 0 0 -0 -0 0 0 0 0 0 0 0 0 0 0 0 -0 -0 -0 -0 -0 -0 0 0 0 0 0 -0 -0 -0 -0 -0 -0 -0 -0 -0 0 0
0 0 0 0 0 0 0 0 0 0 0 0 0 0 0 0 0 0 0 0 0 0 0 0 0 0 0 0 0 0 0 0 0 0 -0 0 0 0 0 0 0 -0 -0 -0 -0 -0 -0 -0 -0 -0 -0 -0 -0 -0
0 0 0 0 0 0 0 0 0 0 0 0 0 0 0 0 0 0 0 0 0 0 0 0 0 0 0 0 0 0 0 0 0 -0 -0 -0 -0 -0 0 0 0 0 -0 -0 -0 -0 -0 -0 -0 -0 -0 -0 -0 -0
0 0 0 0 0 0 0 0 -0 0 0 0 0 0 0 0 0 0 0 0 0 0 0 0 0 0 0 0 0 0 0 0 0 0 0 0 0 0 0 0 0 0 0 0 -0 -0 -0 -0 -0 0 -0 -0 -0 -0
0 0 0 0 0 -0 -0 -0 0 0 0 -0 0 -0 -0 -0 -0 -0 0 0 -0 0 0 0 0 0 0 0 0 0 0 0 0 0 0 0 0 0 0 0 0 0 0 0 0 -0 -0 0 -0 -0 -0 -0 -0 -0
Wind_Speed_500mb
55 53 49 47 50 48 44 42 41 41 40 40 38 37 33 28 17 25 32 23 29 27 56 67 67 52 38 26 9 14 20 7 5 1 5 8 7 10 7 12 8 12 8 7 5 9 20 4 6 12 7 21 16 9
54 52 48 49 48 44 41 40 39 39 38 37 36 34 33 28 18 24 37 32 32 37 50 54 57 61 68 68 52 25 22 28 9 2 2 5 6 4 10 18 10 12 21 11 15 13 17 31 25 49 40 44 27 35
54 50 48 47 43 41 39 36 34 32 30 31 30 35 33 29 20 22 39 39 40 40 57 35 22 40 43 39 36 53 42 38 36 51 22 8 14 4 6 10 15 15 39 20 22 41 50 61 68 72 54 57 54 44
53 49 46 43 39 35 34 31 30 29 25 30 35 30 32 27 20 28 36 39 38 24 16 17 22 38 42 46 44 51 69 62 67 50 27 9 12 21 7 13 13 22 14 25 30 38 46 57 57 66 72 69 55 46
45 43 39 36 38 38 34 33 32 31 28 30 32 29 32 29 27 35 43 43 38 30 12 38 81 18 20 35 46 47 68 85 53 18 9 15 14 10 9 8 26 16 30 18 22 37 28 41 56 53 55 59 55 45
38 39 40 36 34 36 30 31 29 32 30 32 33 27 30 27 28 34 12 3 7 33 14 10 29 46 9 14 22 33 40 56 40 13 11 15 26 16 7 12 29 38 44 60 49 63 59 79 73 65 57 59 56 48
38 38 36 41 43 33 29 32 35 33 29 34 32 27 33 24 27 24 14 12 19 37 13 16 19 18 38 26 11 11 24 19 32 17 13 11 15 23 6 22 61 51 40 33 34 39 48 55 36 30 32 42 45 54
39 39 44 45 40 38 36 34 37 33 29 37 27 33 29 28 34 38 17 16 15 21 9 7 10 18 13 10 11 9 14 9 11 10 7 7 7 11 9 24 35 41 53 63 69 54 35 35 42 46 46 55 44 51
46 47 48 43 34 33 39 42 43 38 33 30 28 30 34 17 12 1 8 9 12 10 6 9 5 8 18 12 12 11 8 3 4 4 5 5 5 9 14 39 54 69 63 68 51 52 42 40 40 49 24 15 20 25
31 29 26 26 27 27 19 17 21 21 22 21 24 6 6 3 5 11 4 9 18 13 13 10 12 8 15 9 8 8 7 4 4 6 6 7 7 10 38 64 70 56 52 40 30 29 28 37 6 5 7 11 40 30
25 25 26 27 21 17 22 19 16 14 10 9 5 6 6 6 6 5 7 9 12 7 13 15 27 12 12 8 4 5 5 5 5 2 4 5 6 18 73 58 57 53 46 32 15 22 20 8 6 4 6 10 12 24
21 19 22 18 17 19 20 20 14 13 10 8 9 22 10 5 5 2 6 6 9 8 12 13 20 24 8 4 3 5 4 6 8 11 4 5 6 55 64 55 55 56 54 46 24 20 16 10 10 14 18 22 30 37
18 18 19 20 20 15 11 13 8 14 21 16 6 4 6 6 2 9 7 5 5 6 10 15 5 2 3 1 4 2 4 8 20 5 9 6 47 59 54 54 49 53 59 62 56 42 44 36 25 25 30 19 8 16
18 18 23 22 16 11 16 13 19 14 9 6 6 7 8 7 9 9 7 2 17 23 37 15 4 5 5 2 2 5 5 5 7 8 9 9 53 65 49 46 46 52 54 54 52 49 43 43 44 49 56 54 52 50
17 20 22 15 16 19 20 20 21 15 9 8 8 7 10 22 19 21 21 18 27 21 23 4 3 6 3 2 2 5 7 7 6 5 5 36 53 50 47 46 39 39 44 47 48 51 47 44 47 43 38 38 41 43
12 12 3 7 16 26 22 19 20 18 6 8 12 7 19 17 19 20 27 29 7 9 3 0 2 2 3 2 1 6 5 5 6 6 37 46 47 38 32 42 42 28 27 32 39 40 37 33 34 37 35 33 35 42
10 5 2 5 15 23 27 23 14 10 9 9 13 22 34 39 39 45 31 15 3 4 2 2 4 2 4 2 3 2 1 4 26 38 38 37 37 33 26 18 31 43 45 32 34 36 37 35 32 30 36 33 35 35
9 11 2 15 20 28 30 15 7 10 13 20 14 26 25 34 42 38 25 5 5 3 5 3 2 7 4 4 2 2 12 28 30 35 35 29 29 26 15 16 9 18 27 33 31 28 30 36 39 41 34 30 31 31
15 11 8 23 22 16 11 10 11 8 20 22 27 36 32 34 34 16 20 11 4 3 2 0 2 3 1 4 8 25 22 22 33 35 32 22 18 29 17 6 9 5 8 14 23 21 21 22 26 28 31 25 28 30
11 3 18 20 23 13 9 9 12 11 9 7 21 23 28 29 16 17 18 8 4 5 3 3 2 3 11 25 20 22 21 22 29 35 36 25 12 16 11 19 21 24 17 15 7 5 15 12 11 8 12 24 23 32
12 17 17 16 11 7 8 3 9 10 13 10 19 15 9 2 10 12 6 6 5 4 4 2 12 9 10 11 11 14 16 17 18 25 19 17 23 11 14 6 5 7 13 17 22 19 18 19 11 6 4 12 24 33
16 18 12 18 9 7 10 11 10 13 10 14 20 11 8 4 5 6 5 6 5 3 6 11 9 13 12 10 11 13 10 10 10 4 7 8 20 20 18 13 7 15 18 15 16 19 21 17 12 17 19 23 21 34
22 18 9 10 7 8 12 9 6 6 3 7 11 2 3 3 6 8 4 7 6 1 8 6 13 17 10 23 28 31 23 18 8 8 10 12 10 15 18 14 8 6 8 10 10 14 23 25 25 27 32 38 38 36
14 9 5 8 13 8 8 7 8 7 8 5 4 3 2 5 9 4 3 6 9 7 7 1 8 14 17 17 22 24 34 33 14 10 11 7 11 9 12 17 14 9 7 10 10 14 20 20 17 23 28 33 28 23
6 7 7 9 9 7 8 7 8 5 6 7 6 3 7 6 2 3 6 11 18 10 4 12 8 9 14 16 13 14 30 35 26 13 13 7 10 6 8 15 18 17 7 7 7 15 17 14 11 17 26 17 22 27
7 9 13 10 8 9 6 4 10 11 5 5 4 3 6 3 5 3 4 22 22 16 17 13 6 3 1 9 10 11 22 27 20 28 20 10 13 18 24 25 11 10 9 19 14 17 16 14 17 19 23 24 22 22
5 9 16 15 11 12 8 11 9 2 4 3 6 9 5 7 4 3 12 13 12 19 19 11 5 3 4 8 3 6 10 18 23 18 19 19 20 22 28 30 15 13 13 12 14 23 28 27 25 24 28 24 17 23
10 8 4 7 19 20 5 3 5 4 3 1 4 7 5 3 6 8 8 9 13 21 15 11 9 4 14 8 6 5 6 12 22 18 13 9 12 17 29 36 15 11 15 12 21 27 27 22 20 23 29 30 29 29
11 12 11 23 18 10 15 9 7 3 1 2 6 6 8 5 8 7 11 12 20 14 11 11 7 2 5 9 8 7 9 15 26 28 32 33 18 16 22 35 32 19 22 35 31 35 29 30 32 34 35 37 30 28
16 22 8 7 7 7 10 11 7 3 3 2 11 10 11 15 10 8 14 16 16 10 9 6 1 5 4 4 7 9 9 12 19 20 22 21 23 16 3 8 17 30 34 36 38 33 26 27 24 23 28 25 19 19
8 8 11 18 7 7 4 7 8 9 7 10 10 10 12 10 14 14 17 21 12 12 9 8 8 12 8 10 10 1 5 4 4 10 10 3 9 12 9 5 10 14 21 27 35 30 25 25 21 20 19 20 20 17
14 9 11 5 3 4 1 10 10 8 8 6 7 6 6 7 7 19 26 20 18 17 12 10 13 11 8 6 9 9 11 12 13 11 12 7 15 13 8 6 11 26 15 10 19 20 17 17 16 17 17 15 23 26
24 25 23 8 5 5 10 9 6 3 4 8 8 11 15 15 8 15 20 23 20 15 13 12 12 8 10 13 9 5 6 8 1 9 16 11 10 9 6 8 9 11 10 13 23 20 21 16 15 14 17 21 17 12
Wind_Direction_500mb
302 303 306 309 310 310 310 309 309 310 311 312 313 313 311 307 301 304 296 302 285 271 275 274 274 270 269 258 225 273 338 3 18 192 187 239 213 229 222 213 220 192 187 212 214 195 268 126 345 181 228 300 158 206
297 297 302 307 307 306 306 307 309 310 312 314 320 323 317 305 287 290 295 304 294 273 265 269 268 264 263 265 256 247 241 266 275 56 280 279 286 269 211 263 224 244 214 233 212 216 224 226 214 276 276 261 255 275
292 294 300 303 302 303 305 307 309 312 318 319 322 324 320 311 286 283 292 302 300 290 298 275 269 294 287 269 242 247 254 239 244 247 256 250 252 230 226 232 233 246 245 246 248 245 253 264 266 267 260 274 267 261
291 294 298 297 297 300 302 302 306 308 317 315 317 319 317 315 306 295 290 298 291 282 280 285 294 275 275 264 247 251 259 263 263 258 229 239 254 206 226 257 236 257 270 250 252 262 266 263 258 258 266 267 266 264
292 296 293 291 293 299 305 306 304 302 307 304 305 306 317 303 303 299 302 299 280 252 281 295 302 322 309 288 278 247 246 251 252 225 218 243 240 242 228 238 256 222 250 241 253 255 238 262 264 265 263 261 274 275
296 298 295 298 298 301 302 297 299 297 302 297 299 298 307 300 302 312 316 256 101 26 275 312 294 308 29 314 273 267 263 255 235 225 229 237 247 201 252 254 264 257 264 246 251 266 260 264 270 272 261 262 261 253
297 288 284 285 287 291 285 283 282 289 295 291 291 286 299 289 285 273 252 277 297 324 324 300 302 294 323 338 320 289 206 239 248 241 224 241 243 203 243 266 277 287 280 278 293 299 289 254 259 285 276 276 276 253
281 281 283 285 286 275 273 277 281 285 284 291 289 292 287 297 282 278 298 286 244 262 235 272 278 299 318 323 326 278 267 260 230 228 258 247 244 217 253 257 285 294 294 293 297 283 269 289 283 290 295 266 267 247
280 284 284 286 292 292 278 267 271 272 272 290 293 296 298 267 240 113 295 313 223 220 219 231 265 271 323 329 308 289 344 286 250 247 245 234 240 238 294 309 295 292 289 275 261 280 278 282 292 290 277 263 213 236
286 287 288 289 287 289 270 283 290 279 265 280 296 280 251 316 227 291 278 199 202 213 227 251 234 270 308 310 302 300 317 288 277 236 232 227 249 323 317 315 312 311 313 336 249 256 244 252 280 276 208 232 253 264
285 284 284 290 287 291 268 256 275 273 264 276 231 242 324 274 300 228 235 200 195 229 221 238 218 237 260 236 279 322 328 290 289 284 284 304 311 326 334 336 347 5 13 7 354 289 234 262 186 216 255 233 221 215
289 296 291 281 285 278 284 236 235 228 209 201 277 294 272 221 228 239 244 239 194 235 213 204 238 220 245 275 312 336 297 335 271 336 285 287 317 331 338 350 6 21 27 28 37 62 107 79 354 325 306 280 254 245
288 300 296 282 270 266 265 199 226 214 226 233 245 262 212 202 352 226 222 243 247 247 246 237 267 201 147 330 280 305 280 242 313 289 348 324 324 341 354 357 11 38 44 51 62 57 60 61 61 68 67 60 53 163
285 290 298 288 254 218 186 203 181 171 177 207 221 222 196 215 241 205 214 261 257 270 279 274 184 182 180 177 245 276 277 289 335 345 2 312 331 346 3 16 31 41 53 58 62 60 64 63 64 78 85 84 88 94
292 305 300 267 191 187 197 178 178 180 192 222 232 232 225 236 264 305 298 280 270 267 280 211 185 175 183 258 221 288 326 354 22 344 289 313 344 2 19 28 44 61 56 56 58 61 63 64 65 73 70 78 83 87
308 309 61 189 182 187 189 190 185 197 217 237 234 260 260 277 263 267 319 301 288 327 184 343 236 61 232 217 17 20 6 1 310 277 314 335 338 349 17 49 48 49 55 56 54 56 59 64 68 77 74 76 82 86
286 240 173 147 171 184 174 177 184 203 229 240 236 235 260 277 275 285 306 250 348 45 84 4 12 316 267 36 76 31 348 254 289 319 333 332 328 338 347 15 55 67 60 61 57 56 59 66 75 75 74 73 85 94
268 231 329 156 152 156 171 180 213 223 242 246 250 260 262 266 275 287 324 238 347 41 135 208 323 24 27 25 324 237 296 316 328 335 333 336 330 345 336 295 345 59 71 70 65 63 63 60 64 61 62 75 85 91
209 217 225 191 173 170 181 218 220 260 244 252 263 281 278 278 287 270 290 299 339 69 161 264 110 75 184 287 291 301 307 314 324 336 344 348 0 20 28 5 351 329 32 63 59 53 54 60 60 56 56 64 86 90
230 239 166 181 186 197 212 213 210 257 269 271 292 287 291 282 284 264 264 215 110 134 78 45 99 160 271 284 284 287 304 322 325 341 356 12 16 353 18 67 83 90 72 74 59 36 102 98 96 85 59 59 83 109
210 174 174 205 231 254 273 279 226 249 282 276 294 319 296 253 228 210 177 152 85 53 95 144 308 307 290 286 294 311 325 330 351 343 348 36 44 51 102 115 1 63 73 65 77 82 82 84 88 44 27 96 99 122
165 169 194 186 196 243 260 237 239 287 279 269 286 256 254 256 185 177 150 100 89 71 357 336 338 350 35 61 27 16 11 40 43 64 36 57 46 56 67 86 92 80 60 62 54 71 55 40 42 66 125 120 118 128
152 175 175 192 218 235 266 239 253 248 244 272 315 7 295 245 177 164 92 91 109 160 355 344 35 60 54 60 79 76 70 35 55 123 78 89 40 61 60 60 57 82 88 98 68 60 59 65 73 87 107 118 119 121
152 185 221 212 212 254 242 218 225 252 242 230 257 222 256 219 160 160 113 105 157 155 18 102 69 83 89 50 58 53 41 53 103 109 108 69 106 76 46 43 31 59 101 131 110 103 94 80 85 96 110 120 129 129
210 232 211 250 227 245 225 203 204 245 225 224 216 86 287 188 139 201 156 144 165 162 112 108 108 57 38 37 50 71 50 46 73 107 144 103 76 60 65 48 53 67 103 117 161 120 116 102 98 95 113 106 100 125
214 218 199 215 224 213 247 237 199 208 210 247 136 103 264 175 208 180 134 169 178 182 159 95 79 150 183 11 28 92 41 39 76 93 95 79 60 58 48 32 35 58 28 23 107 150 137 137 130 127 119 106 112 111
262 252 222 233 262 293 279 265 272 209 236 237 162 179 229 174 154 185 149 170 187 173 152 127 121 25 256 235 131 115 95 79 79 89 91 74 49 42 28 20 41 95 76 59 99 112 113 120 128 139 136 134 111 126
257 293 229 262 241 252 235 325 275 241 237 28 91 25 351 101 209 140 180 158 143 151 154 159 165 53 34 74 78 97 119 123 121 108 98 92 58 46 34 33 73 92 42 83 120 119 122 120 117 136 143 148 131 120
244 226 315 264 259 228 199 213 244 172 188 28 116 179 185 131 158 169 153 153 161 157 158 154 178 134 37 58 78 82 90 117 148 132 112 80 101 89 45 46 63 61 72 100 118 130 128 109 108 101 120 125 119 122
247 231 212 263 170 214 221 214 153 133 100 160 138 126 118 131 147 147 163 165 168 156 151 142 321 230 134 142 78 59 90 112 136 136 132 120 99 130 162 53 74 82 79 97 109 121 125 119 116 122 131 133 126 128
255 177 217 236 263 198 202 210 153 161 156 97 116 167 174 179 179 186 193 188 188 180 175 174 120 137 141 157 189 246 322 349 198 199 199 184 199 148 118 173 174 146 116 96 108 119 118 116 122 122 129 142 149 146
184 207 208 221 159 161 184 185 173 184 155 144 153 163 154 179 209 187 194 195 193 192 181 175 164 139 158 210 273 298 265 264 287 225 208 175 158 158 108 119 193 201 205 178 142 132 131 132 128 123 117 132 134 134
209 210 214 205 194 222 180 143 130 106 186 197 204 209 188 185 200 183 184 199 195 194 203 198 197 225 270 254 259 6 50 16 153 191 196 187 179 187 174 130 139 177 171 190 205 170 143 141 146 141 134 134 133 127
Wind_Speed_850mb
55 53 49 47 50 48 44 42 41 41 40 40 38 37 33 28 17 25 32 23 29 27 56 67 67 52 38 26 9 14 20 7 5 1 5 8 7 10 7 12 8 12 8 7 5 9 20 4 6 12 7 21 16 9
54 52 48 49 48 44 41 40 39 39 38 37 36 34 33 28 18 24 37 32 32 37 50 54 57 61 68 68 52 25 22 28 9 2 2 5 6 4 10 18 10 12 21 11 15 13 17 31 25 49 40 44 27 35
54 50 48 47 43 41 39 36 34 32 30 31 30 35 33 29 20 22 39 39 40 40 57 35 22 40 43 39 36 53 42 38 36 51 22 8 14 4 6 10 15 15 39 20 22 41 50 61 68 72 54 57 54 44
53 49 46 43 39 35 34 31 30 29 25 30 35 30 32 27 20 28 36 39 38 24 16 17 22 38 42 46 44 51 69 62 67 50 27 9 12 21 7 13 13 22 14 25 30 38 46 57 57 66 72 69 55 46
45 43 39 36 38 38 34 33 32 31 28 30 32 29 32 29 27 35 43 43 38 30 12 38 81 18 20 35 46 47 68 85 53 18 9 15 14 10 9 8 26 16 30 18 22 37 28 41 56 53 55 59 55 45
38 39 40 36 34 36 30 31 29 32 30 32 33 27 30 27 28 34 12 3 7 33 14 10 29 46 9 14 22 33 40 56 40 13 11 15 26 16 7 12 29 38 44 60 49 63 59 79 73 65 57 59 56 48
38 38 36 41 43 33 29 32 35 33 29 34 32 27 33 24 27 24 14 12 19 37 13 16 19 18 38 26 11 11 24 19 32 17 13 11 15 23 6 22 61 51 40 33 34 39 48 55 36 30 32 42 45 54
39 39 44 45 40 38 36 34 37 33 29 37 27 33 29 28 34 38 17 16 15 21 9 7 10 18 13 10 11 9 14 9 11 10 7 7 7 11 9 24 35 41 53 63 69 54 35 35 42 46 46 55 44 51
46 47 48 43 34 33 39 42 43 38 33 30 28 30 34 17 12 1 8 9 12 10 6 9 5 8 18 12 12 11 8 3 4 4 5 5 5 9 14 39 54 69 63 68 51 52 42 40 40 49 24 15 20 25
31 29 26 26 27 27 19 17 21 21 22 21 24 6 6 3 5 11 4 9 18 13 13 10 12 8 15 9 8 8 7 4 4 6 6 7 7 10 38 64 70 56 52 40 30 29 28 37 6 5 7 11 40 30
25 25 26 27 21 17 22 19 16 14 10 9 5 6 6 6 6 5 7 9 12 7 13 15 27 12 12 8 4 5 5 5 5 2 4 5 6 18 73 58 57 53 46 32 15 22 20 8 6 4 6 10 12 24
21 19 22 18 17 19 20 20 14 13 10 8 9 22 10 5 5 2 6 6 9 8 12 13 20 24 8 4 3 5 4 6 8 11 4 5 6 55 64 55 55 56 54 46 24 20 16 10 10 14 18 22 30 37
18 18 19 20 20 15 11 13 8 14 21 16 6 4 6 6 2 9 7 5 5 6 10 15 5 2 3 1 4 2 4 8 20 5 9 6 47 59 54 54 49 53 59 62 56 42 44 36 25 25 30 19 8 16
18 18 23 22 16 11 16 13 19 14 9 6 6 7 8 7 9 9 7 2 17 23 37 15 4 5 5 2 2 5 5 5 7 8 9 9 53 65 49 46 46 52 54 54 52 49 43 43 44 49 56 54 52 50
17 20 22 15 16 19 20 20 21 15 9 8 8 7 10 22 19 21 21 18 27 21 23 4 3 6 3 2 2 5 7 7 6 5 5 36 53 50 47 46 39 39 44 47 48 51 47 44 47 43 38 38 41 43
12 12 3 7 16 26 22 19 20 18 6 8 12 7 19 17 19 20 27 29 7 9 3 0 2 2 3 2 1 6 5 5 6 6 37 46 47 38 32 42 42 28 27 32 39 40 37 33 34 37 35 33 35 42
10 5 2 5 15 23 27 23 14 10 9 9 13 22 34 39 39 45 31 15 3 4 2 2 4 2 4 2 3 2 1 4 26 38 38 37 37 33 26 18 31 43 45 32 34 36 37 35 32 30 36 33 35 35
9 11 2 15 20 28 30 15 7 10 13 20 14 26 25 34 42 38 25 5 5 3 5 3 2 7 4 4 2 2 12 28 30 35 35 29 29 26 15 16 9 18 27 33 31 28 30 36 39 41 34 30 31 31
15 11 8 23 22 16 11 10 11 8 20 22 27 36 32 34 34 16 20 11 4 3 2 0 2 3 1 4 8 25 22 22 33 35 32 22 18 29 17 6 9 5 8 14 23 21 21 22 26 28 31 25 28 30
11 3 18 20 23 13 9 9 12 11 9 7 21 23 28 29 16 17 18 8 4 5 3 3 2 3 11 25 20 22 21 22 29 35 36 25 12 16 11 19 21 24 17 15 7 5 15 12 11 8 12 24 23 32
12 17 17 16 11 7 8 3 9 10 13 10 19 15 9 2 10 12 6 6 5 4 4 2 12 9 10 11 11 14 16 17 18 25 19 17 23 11 14 6 5 7 13 17 22 19 18 19 11 6 4 12 24 33
16 18 12 18 9 7 10 11 10 13 10 14 20 11 8 4 5 6 5 6 5 3 6 11 9 13 12 10 11 13 10 10 10 4 7 8 20 20 18 13 7 15 18 15 16 19 21 17 12 17 19 23 21 34
22 18 9 10 7 8 12 9 6 6 3 7 11 2 3 3 6 8 4 7 6 1 8 6 13 17 10 23 28 31 23 18 8 8 10 12 10 15 18 14 8 6 8 10 10 14 23 25 25 27 32 38 38 36
14 9 5 8 13 8 8 7 8 7 8 5 4 3 2 5 9 4 3 6 9 7 7 1 8 14 17 17 22 24 34 33 14 10 11 7 11 9 12 17 14 9 7 10 10 14 20 20 17 23 28 33 28 23
6 7 7 9 9 7 8 7 8 5 6 7 6 3 7 6 2 3 6 11 18 10 4 12 8 9 14 16 13 14 30 35 26 13 13 7 10 6 8 15 18 17 7 7 7 15 17 14 11 17 26 17 22 27
7 9 13 10 8 9 6 4 10 11 5 5 4 3 6 3 5 3 4 22 22 16 17 13 6 3 1 9 10 11 22 27 20 28 20 10 13 18 24 25 11 10 9 19 14 17 16 14 17 19 23 24 22 22
5 9 16 15 11 12 8 11 9 2 4 3 6 9 5 7 4 3 12 13 12 19 19 11 5 3 4 8 3 6 10 18 23 18 19 19 20 22 28 30 15 13 13 12 14 23 28 27 25 24 28 24 17 23
10 8 4 7 19 20 5 3 5 4 3 1 4 7 5 3 6 8 8 9 13 21 15 11 9 4 14 8 6 5 6 12 22 18 13 9 12 17 29 36 15 11 15 12 21 27 27 22 20 23 29 30 29 29
11 12 11 23 18 10 15 9 7 3 1 2 6 6 8 5 8 7 11 12 20 14 11 11 7 2 5 9 8 7 9 15 26 28 32 33 18 16 22 35 32 19 22 35 31 35 29 30 32 34 35 37 30 28
16 22 8 7 7 7 10 11 7 3 3 2 11 10 11 15 10 8 14 16 16 10 9 6 1 5 4 4 7 9 9 12 19 20 22 21 23 16 3 8 17 30 34 36 38 33 26 27 24 23 28 25 19 19
8 8 11 18 7 7 4 7 8 9 7 10 10 10 12 10 14 14 17 21 12 12 9 8 8 12 8 10 10 1 5 4 4 10 10 3 9 12 9 5 10 14 21 27 35 30 25 25 21 20 19 20 20 17
14 9 11 5 3 4 1 10 10 8 8 6 7 6 6 7 7 19 26 20 18 17 12 10 13 11 8 6 9 9 11 12 13 11 12 7 15 13 8 6 11 26 15 10 19 20 17 17 16 17 17 15 23 26
24 25 23 8 5 5 10 9 6 3 4 8 8 11 15 15 8 15 20 23 20 15 13 12 12 8 10 13 9 5 6 8 1 9 16 11 10 9 6 8 9 11 10 13 23 20 21 16 15 14 17 21 17 12
Wind_Direction_850mb
302 303 306 309 310 310 310 309 309 310 311 312 313 313 311 307 301 304 296 302 285 271 275 274 274 270 269 258 225 273 338 3 18 192 187 239 213 229 222 213 220 192 187 212 214 195 268 126 345 181 228 300 158 206
297 297 302 307 307 306 306 307 309 310 312 314 320 323 317 305 287 290 295 304 294 273 265 269 268 264 263 265 256 247 241 266 275 56 280 279 286 269 211 263 224 244 214 233 212 216 224 226 214 276 276 261 255 275
292 294 300 303 302 303 305 307 309 312 318 319 322 324 320 311 286 283 292 302 300 290 298 275 269 294 287 269 242 247 254 239 244 247 256 250 252 230 226 232 233 246 245 246 248 245 253 264 266 267 260 274 267 261
291 294 298 297 297 300 302 302 306 308 317 315 317 319 317 315 306 295 290 298 291 282 280 285 294 275 275 264 247 251 259 263 263 258 229 239 254 206 226 257 236 257 270 250 252 262 266 263 258 258 266 267 266 264
292 296 293 291 293 299 305 306 304 302 307 304 305 306 317 303 303 299 302 299 280 252 281 295 302 322 309 288 278 247 246 251 252 225 218 243 240 242 228 238 256 222 250 241 253 255 238 262 264 265 263 261 274 275
296 298 295 298 298 301 302 297 299 297 302 297 299 298 307 300 302 312 316 256 101 26 275 312 294 308 29 314 273 267 263 255 235 225 229 237 247 201 252 254 264 257 264 246 251 266 260 264 270 272 261 262 261 253
297 288 284 285 287 291 285 283 282 289 295 291 291 286 299 289 285 273 252 277 297 324 324 300 302 294 323 338 320 289 206 239 248 241 224 241 243 203 243 266 277 287 280 278 293 299 289 254 259 285 276 276 276 253
281 281 283 285 286 275 273 277 281 285 284 291 289 292 287 297 282 278 298 286 244 262 235 272 278 299 318 323 326 278 267 260 230 228 258 247 244 217 253 257 285 294 294 293 297 283 269 289 283 290 295 266 267 247
280 284 284 286 292 292 278 267 271 272 272 290 293 296 298 267 240 113 295 313 223 220 219 231 265 271 323 329 308 289 344 286 250 247 245 234 240 238 294 309 295 292 289 275 261 280 278 282 292 290 277 263 213 236
286 287 288 289 287 289 270 283 290 279 265 280 296 280 251 316 227 291 278 199 202 213 227 251 234 270 308 310 302 300 317 288 277 236 232 227 249 323 317 315 312 311 313 336 249 256 244 252 280 276 208 232 253 264
285 284 284 290 287 291 268 256 275 273 264 276 231 242 324 274 300 228 235 200 195 229 221 238 218 237 260 236 279 322 328 290 289 284 284 304 311 326 334 336 347 5 13 7 354 289 234 262 186 216 255 233 221 215
289 296 291 281 285 278 284 236 235 228 209 201 277 294 272 221 228 239 244 239 194 235 213 204 238 220 245 275 312 336 297 335 271 336 285 287 317 331 338 350 6 21 27 28 37 62 107 79 354 325 306 280 254 245
288 300 296 282 270 266 265 199 226 214 226 233 245 262 212 202 352 226 222 243 247 247 246 237 267 201 147 330 280 305 280 242 313 289 348 324 324 341 354 357 11 38 44 51 62 57 60 61 61 68 67 60 53 163
285 290 298 288 254 218 186 203 181 171 177 207 221 222 196 215 241 205 214 261 257 270 279 274 184 182 180 177 245 276 277 289 335 345 2 312 331 346 3 16 31 41 53 58 62 60 64 63 64 78 85 84 88 94
292 305 300 267 191 187 197 178 178 180 192 222 232 232 225 236 264 305 298 280 270 267 280 211 185 175 183 258 221 288 326 354 22 344 289 313 344 2 19 28 44 61 56 56 58 61 63 64 65 73 70 78 83 87
308 309 61 189 182 187 189 190 185 197 217 237 234 260 260 277 263 267 319 301 288 327 184 343 236 61 232 217 17 20 6 1 310 277 314 335 338 349 17 49 48 49 55 56 54 56 59 64 68 77 74 76 82 86
286 240 173 147 171 184 174 177 184 203 229 240 236 235 260 277 275 285 306 250 348 45 84 4 12 316 267 36 76 31 348 254 289 319 333 332 328 338 347 15 55 67 60 61 57 56 59 66 75 75 74 73 85 94
268 231 329 156 152 156 171 180 213 223 242 246 250 260 262 266 275 287 324 238 347 41 135 208 323 24 27 25 324 237 296 316 328 335 333 336 330 345 336 295 345 59 71 70 65 63 63 60 64 61 62 75 85 91
209 217 225 191 173 170 181 218 220 260 244 252 263 281 278 278 287 270 290 299 339 69 161 264 110 75 184 287 291 301 307 314 324 336 344 348 0 20 28 5 351 329 32 63 59 53 54 60 60 56 56 64 86 90
230 239 166 181 186 197 212 213 210 257 269 271 292 287 291 282 284 264 264 215 110 134 78 45 99 160 271 284 284 287 304 322 325 341 356 12 16 353 18 67 83 90 72 74 59 36 102 98 96 85 59 59 83 109
210 174 174 205 231 254 273 279 226 249 282 276 294 319 296 253 228 210 177 152 85 53 95 144 308 307 290 286 294 311 325 330 351 343 348 36 44 51 102 115 1 63 73 65 77 82 82 84 88 44 27 96 99 122
165 169 194 186 196 243 260 237 239 287 279 269 286 256 254 256 185 177 150 100 89 71 357 336 338 350 35 61 27 16 11 40 43 64 36 57 46 56 67 86 92 80 60 62 54 71 55 40 42 66 125 120 118 128
152 175 175 192 218 235 266 239 253 248 244 272 315 7 295 245 177 164 92 91 109 160 355 344 35 60 54 60 79 76 70 35 55 123 78 89 40 61 60 60 57 82 88 98 68 60 59 65 73 87 107 118 119 121
152 185 221 212 212 254 242 218 225 252 242 230 257 222 256 219 160 160 113 105 157 155 18 102 69 83 89 50 58 53 41 53 103 109 108 69 106 76 46 43 31 59 101 131 110 103 94 80 85 96 110 120 129 129
210 232 211 250 227 245 225 203 204 245 225 224 216 86 287 188 139 201 156 144 165 162 112 108 108 57 38 37 50 71 50 46 73 107 144 103 76 60 65 48 53 67 103 117 161 120 116 102 98 95 113 106 100 125
214 218 199 215 224 213 247 237 199 208 210 247 136 103 264 175 208 180 134 169 178 182 159 95 79 150 183 11 28 92 41 39 76 93 95 79 60 58 48 32 35 58 28 23 107 150 137 137 130 127 119 106 112 111
262 252 222 233 262 293 279 265 272 209 236 237 162 179 229 174 154 185 149 170 187 173 152 127 121 25 256 235 131 115 95 79 79 89 91 74 49 42 28 20 41 95 76 59 99 112 113 120 128 139 136 134 111 126
257 293 229 262 241 252 235 325 275 241 237 28 91 25 351 101 209 140 180 158 143 151 154 159 165 53 34 74 78 97 119 123 121 108 98 92 58 46 34 33 73 92 42 83 120 119 122 120 117 136 143 148 131 120
244 226 315 264 259 228 199 213 244 172 188 28 116 179 185 131 158 169 153 153 161 157 158 154 178 134 37 58 78 82 90 117 148 132 112 80 101 89 45 46 63 61 72 100 118 130 128 109 108 101 120 125 119 122
247 231 212 263 170 214 221 214 153 133 100 160 138 126 118 131 147 147 163 165 168 156 151 142 321 230 134 142 78 59 90 112 136 136 132 120 99 130 162 53 74 82 79 97 109 121 125 119 116 122 131 133 126 128
255 177 217 236 263 198 202 210 153 161 156 97 116 167 174 179 179 186 193 188 188 180 175 174 120 137 141 157 189 246 322 349 198 199 199 184 199 148 118 173 174 146 116 96 108 119 118 116 122 122 129 142 149 146
184 207 208 221 159 161 184 185 173 184 155 144 153 163 154 179 209 187 194 195 193 192 181 175 164 139 158 210 273 298 265 264 287 225 208 175 158 158 108 119 193 201 205 178 142 132 131 132 128 123 117 132 134 134
209 210 214 205 194 222 180 143 130 106 186 197 204 209 188 185 200 183 184 199 195 194 203 198 197 225 270 254 259 6 50 16 153 191 196 187 179 187 174 130 139 177 171 190 205 170 143 141 146 141 134 134 133 127